Location: Marcé
(47.5801°N, 0.3280°W)
Time: 19:14:26
(UTC+01:00)

Courier 1B - Pass Details

Date: 02 December 2021
Orbit: 962 x 1209 km, 28.3° (Epoch: 21 January)

Event Time Altitude Azimuth Distance (km) Brightness Sun altitude
Rises 20:07:08 0° 236° (SW) 3,914 11.5 -28.8°
Reaches altitude 10° 20:11:20 10° 214° (SW) 2,900 10.3 -29.5°
Maximum altitude 20:14:59 15° 182° (S) 2,512 9.6 -30.1°
Enters shadow 20:15:59 14° 173° (S) 2,528 9.6 -30.3°
